HELLAS-SAT 2

Last updated on Mon Oct 14 2024 00:02:37 GMT+0000 (Coordinated Universal Time)

1 27811U 03020A 24287.26153392 -.00000079 00000+0 00000+0 0 9993 2 27811 5.8159 75.1058 0008511 144.3053 247.1167 1.00271314 78204
UTC large
Height (km)
Speed (km/s)
/
Latitude / Longitude
Inclination (degrees)
Orbital Period (minutes)
Azimuth
Elevation
Range (km)
Doppler Factor

Next 0 passes for location: London (51.5072 / 0.1276)

Sorry there are no passes over London.